Wind_Speed
39 39 39 39 39 40 41 42 44 42 42 40 40 40 40 40 41 41 41 41 41 41 41 41 42 42 42 42 42 42 42 43 43 43 43 44 45 45 46 47 47 48 48 49
39 39 39 39 38 39 40 40 41 41 40 39 40 41 41 42 41 41 40 41 41 41 41 41 42 42 42 42 42 41 41 42 42 43 43 44 45 45 45 46 47 47 48 48
39 38 38 38 36 37 38 38 39 40 38 38 39 39 39 40 40 40 40 41 41 41 41 41 41 41 41 41 41 41 41 41 42 43 43 44 44 45 45 45 45 46 46 46
38 38 39 37 37 37 38 37 37 38 37 37 38 37 38 39 39 39 39 39 40 40 39 39 39 39 40 40 41 41 42 42 42 42 43 43 44 44 43 43 44 44 44 44
37 38 38 37 37 37 37 36 36 36 37 37 37 37 38 39 39 39 39 39 39 39 39 39 39 39 39 39 40 40 41 41 41 42 42 43 43 43 43 42 42 42 43 43
37 37 36 35 36 37 37 37 36 36 37 37 38 38 37 38 38 39 39 39 39 39 39 39 39 39 39 39 39 39 40 41 41 41 42 42 42 42 41 41 41 41 42 42
36 36 36 35 34 35 36 37 37 37 38 38 38 38 38 39 39 39 39 39 39 38 38 38 39 39 39 39 39 39 39 40 40 41 41 41 41 40 40 40 40 40 40 40
36 36 36 35 35 35 36 37 38 37 37 37 37 37 38 38 38 38 38 38 38 38 37 37 38 38 38 38 39 38 38 38 39 39 39 39 38 38 37 37 38 38 37 37
35 36 36 36 37 37 37 37 37 37 37 36 37 37 37 37 37 37 37 37 37 37 37 37 37 37 37 37 37 37 37 37 37 38 38 37 36 36 35 35 35 34 34 35
36 36 36 36 36 36 36 36 36 36 36 36 36 36 36 36 36 36 36 36 36 36 36 36 36 37 37 36 36 36 36 37 37 36 35 35 35 34 34 34 33 33 33 34
35 35 35 35 36 36 36 36 36 35 35 36 36 35 35 35 36 36 36 36 35 35 35 35 35 36 36 36 36 35 35 35 35 33 33 33 32 32 31 31 32 32 32 32
35 35 35 35 35 35 35 35 35 35 35 35 35 35 35 35 36 36 35 35 34 34 35 35 35 35 35 35 35 34 34 33 33 32 32 32 31 30 30 30 30 30 31 31
34 35 35 34 34 35 35 34 34 34 34 34 35 35 35 35 35 35 35 35 35 35 35 35 35 35 35 34 34 33 32 32 31 31 31 30 30 29 29 29 30 30 30 29
33 34 34 33 33 34 34 34 34 34 34 34 34 35 35 34 34 34 35 35 35 35 35 35 35 34 34 33 33 32 31 30 30 30 30 30 29 29 29 29 30 30 30 29
32 32 32 32 32 32 33 33 33 33 33 34 34 34 34 34 34 35 35 35 34 34 35 34 34 33 33 32 32 31 30 30 30 30 30 30 30 29 29 29 30 30 30 30
30 31 31 30 30 30 30 31 32 33 33 33 32 33 33 34 34 34 34 34 34 33 33 33 33 32 32 31 30 30 30 30 30 31 31 31 30 30 30 30 30 29 29 30
29 30 30 29 29 29 29 30 31 32 31 31 31 32 32 32 33 33 33 33 32 32 32 31 31 31 31 30 30 30 30 30 30 31 31 30 30 30 30 30 29 29 29 29
29 30 30 29 29 28 28 29 29 29 29 30 30 31 31 31 31 31 31 31 30 30 30 29 29 29 29 29 29 29 29 30 30 30 30 30 29 29 29 29 29 29 29 28
29 29 29 29 29 28 28 28 28 28 28 28 29 29 30 30 30 30 30 29 29 28 28 28 28 28 28 28 28 28 29 29 29 29 29 29 29 29 29 29 29 28 28 28
29 29 29 29 28 28 28 28 27 27 27 27 27 28 29 29 29 28 28 27 27 27 27 27 27 27 27 27 28 28 28 28 28 28 28 28 28 28 28 28 28 28 28 27
28 28 28 28 28 28 28 28 28 27 27 27 27 27 27 28 27 27 26 26 26 26 26 26 26 27 27 27 28 28 28 28 27 27 27 26 26 26 26 26 27 27 27 26
28 29 29 29 29 28 28 28 27 27 27 27 26 27 27 27 27 27 26 25 25 25 26 26 26 26 27 27 27 27 27 27 27 26 26 25 25 25 25 26 26 26 26 25
27 27 27 27 27 27 27 27 27 27 26 26 26 26 27 27 27 27 26 26 26 26 26 26 27 27 27 26 26 26 26 26 26 25 25 25 25 25 25 25 25 25 25 25
26 26 26 26 25 26 26 26 26 26 26 26 26 26 26 27 27 27 27 26 26 26 26 26 26 26 26 25 26 26 26 26 26 25 25 25 25 25 25 24 24 24 24 24
27 26 26 25 26 26 26 26 26 26 26 26 25 26 26 26 26 26 26 25 26 26 25 25 25 25 25 25 25 26 26 26 26 26 25 25 25 25 24 24 24 23 23 23
27 27 26 26 26 26 26 26 26 25 25 25 25 26 26 26 25 25 25 25 25 25 25 24 24 24 24 25 25 25 25 25 25 25 25 25 24 24 24 23 23 23 23 22
26 27 27 27 26 25 25 25 25 25 25 25 25 25 25 25 24 24 24 24 24 24 24 23 23 23 23 24 24 24 24 24 24 24 24 23 23 23 23 22 22 22 22 21
Wind_Direction
278 279 279 278 277 275 275 276 277 278 278 279 279 280 281 281 282 282 282 281 279 279 280 281 280 280 280 281 281 281 282 282 283 283 283 282 282 282 281 281 281 282 281 281
278 278 278 277 278 278 277 277 277 278 279 280 279 279 280 281 282 282 282 281 281 280 281 281 281 280 280 280 280 281 282 283 283 283 283 283 283 283 284 285 285 284 282 282
279 278 277 277 280 280 279 278 278 279 281 280 280 280 280 281 282 282 281 281 281 281 281 281 282 282 281 281 282 282 282 283 283 284 284 285 285 285 286 286 286 286 285 283
279 279 278 281 281 281 281 280 280 280 280 280 280 279 280 281 283 283 283 282 282 282 282 282 283 283 283 282 283 283 282 283 284 284 285 285 286 287 286 286 287 288 287 285
281 281 281 281 282 282 281 280 281 281 280 280 281 281 281 283 283 284 283 283 283 282 283 283 283 284 284 284 284 284 284 284 284 284 285 287 287 288 287 287 287 288 287 286
282 282 284 285 284 283 282 281 281 281 281 282 281 281 282 284 284 284 284 284 284 283 283 284 285 285 285 285 285 286 286 286 285 286 287 288 288 288 288 287 287 287 288 287
281 281 283 286 286 285 283 283 283 283 283 283 283 284 285 286 285 285 285 285 284 285 285 284 285 285 285 285 286 287 287 287 286 287 288 288 289 289 288 287 286 287 288 288
282 282 283 285 285 285 285 284 284 284 284 284 284 284 285 286 286 286 286 286 285 284 284 284 285 285 285 286 287 288 289 289 289 288 288 289 289 289 288 287 287 287 288 289
282 282 284 284 285 285 285 285 284 284 284 284 284 284 285 285 286 287 287 286 286 285 283 284 285 286 286 287 288 289 290 291 291 290 290 289 289 289 289 288 289 289 289 289
282 283 285 285 285 285 284 285 285 285 285 285 285 285 285 285 285 286 287 287 286 286 285 284 285 287 288 288 290 290 290 291 291 291 290 290 290 290 290 290 289 289 290 289
282 283 284 284 284 285 286 286 286 286 286 286 286 286 285 285 286 286 286 287 287 287 287 287 287 288 289 290 291 291 291 291 291 291 291 292 292 291 292 292 291 291 291 290
283 283 284 284 284 284 285 285 286 286 286 285 285 285 285 286 286 286 286 286 287 288 288 288 289 289 289 290 291 290 291 292 291 291 292 293 293 292 293 294 293 292 292 292
284 285 285 286 285 285 285 284 284 285 284 284 285 286 286 287 287 287 287 287 287 288 288 289 290 290 290 290 290 290 290 291 291 292 293 293 292 292 293 294 295 295 294 293
285 286 287 287 286 285 284 282 282 283 284 285 286 287 288 288 287 288 287 288 288 288 288 289 290 289 289 289 289 289 289 290 290 292 293 293 293 292 292 293 294 295 295 294
287 287 288 288 286 284 283 282 281 282 283 284 286 288 288 288 288 289 289 289 289 289 289 289 289 288 289 289 289 288 288 289 290 291 292 293 293 293 294 294 294 295 294 294
288 288 288 288 287 286 285 284 282 282 283 285 287 288 288 289 290 291 290 290 290 290 289 289 288 289 289 289 289 289 289 289 290 291 291 291 292 292 293 294 295 295 295 294
288 288 288 289 289 288 288 287 286 286 286 286 288 290 290 291 292 292 291 291 290 290 289 289 289 289 290 289 289 289 289 289 290 290 291 291 291 291 293 294 294 294 295 295
289 289 288 288 289 289 290 290 289 289 288 289 289 291 292 293 294 294 293 291 290 290 290 290 290 289 290 290 290 290 289 289 290 290 290 290 290 291 293 294 294 294 294 295
293 291 289 289 290 291 291 292 293 293 293 292 291 291 293 295 296 295 293 291 290 290 291 290 290 290 290 290 291 291 292 292 291 291 291 290 291 292 293 293 294 293 294 294
293 292 290 290 290 291 292 293 294 294 294 293 293 293 294 295 295 295 293 291 291 292 291 292 292 292 291 291 292 293 293 293 293 293 293 291 291 292 292 293 294 293 293 293
295 293 291 290 291 292 292 293 295 295 295 295 295 295 295 295 295 295 294 292 292 292 293 294 294 293 293 292 293 293 294 293 293 293 292 292 292 292 293 294 295 294 294 293
296 295 293 292 292 293 294 294 294 295 296 295 294 294 295 295 295 295 294 292 292 293 294 294 294 294 294 294 293 293 293 294 294 293 292 292 291 292 294 295 297 296 295 295
298 298 296 294 293 293 294 294 294 294 295 295 295 295 295 295 295 295 294 292 292 293 294 295 294 294 294 294 293 293 294 294 294 293 292 292 292 293 294 295 297 297 297 296
300 301 299 297 296 295 295 295 294 294 295 295 295 296 297 297 297 296 295 294 293 294 295 295 295 294 293 293 293 293 294 294 294 292 291 291 292 293 294 295 296 297 298 297
300 301 299 297 297 296 295 295 293 293 295 296 296 298 300 300 299 298 297 296 295 294 294 294 293 293 293 293 294 294 294 294 293 291 291 291 291 291 292 293 294 295 296 297
300 298 297 297 298 298 297 296 295 294 295 296 297 298 300 300 300 299 299 299 298 297 295 294 294 294 295 295 295 295 295 295 293 292 290 289 289 290 291 292 292 293 295 297
302 300 299 299 300 300 301 300 299 298 297 297 297 298 299 300 300 300 300 300 300 299 297 296 296 296 297 298 298 298 297 296 295 293 292 290 289 290 291 291 292 293 294 296
Height
5575 5574 5572 5571 5570 5569 5567 5565 5564 5564 5563 5563 5561 5559 5557 5555 5553 5552 5550 5548 5546 5545 5543 5541 5539 5537 5534 5532 5530 5528 5526 5524 5521 5519 5516 5514 5512 5509 5507 5504 5502 5499 5497 5494
5565 5564 5561 5560 5560 5558 5556 5555 5553 5552 5552 5551 5549 5548 5546 5544 5542 5541 5539 5537 5535 5533 5531 5529 5527 5525 5523 5521 5519 5516 5514 5512 5509 5507 5504 5502 5499 5497 5494 5491 5489 5486 5484 5481
5554 5552 5550 5549 5550 5548 5547 5545 5544 5542 5542 5540 5539 5537 5535 5533 5531 5530 5528 5526 5524 5522 5520 5518 5515 5513 5511 5509 5507 5505 5502 5500 5498 5495 5492 5490 5487 5484 5481 5479 5476 5473 5470 5467
5543 5542 5539 5543 5540 5538 5536 5535 5533 5531 5530 5529 5528 5526 5524 5522 5520 5518 5516 5515 5513 5511 5508 5506 5504 5502 5499 5497 5495 5493 5491 5488 5486 5483 5480 5478 5475 5472 5469 5466 5463 5460 5457 5454
5533 5530 5529 5532 5530 5528 5526 5525 5524 5521 5520 5518 5517 5515 5514 5511 5509 5507 5505 5503 5501 5499 5497 5495 5493 5490 5488 5486 5484 5481 5479 5476 5474 5471 5468 5466 5463 5460 5456 5453 5451 5447 5444 5441
5523 5520 5519 5523 5520 5517 5516 5515 5514 5511 5509 5508 5506 5505 5504 5501 5499 5496 5494 5492 5490 5488 5486 5484 5481 5479 5477 5475 5472 5470 5467 5464 5462 5459 5456 5453 5450 5447 5444 5441 5438 5435 5432 5429
5514 5511 5510 5512 5510 5507 5507 5505 5502 5500 5498 5497 5495 5494 5492 5490 5487 5485 5483 5481 5479 5477 5475 5473 5470 5468 5466 5463 5461 5458 5455 5453 5450 5447 5444 5441 5438 5435 5432 5429 5426 5423 5420 5417
5505 5502 5504 5502 5499 5498 5496 5493 5491 5489 5487 5486 5484 5482 5481 5479 5476 5474 5472 5470 5468 5466 5464 5462 5459 5457 5455 5452 5450 5447 5444 5441 5438 5435 5432 5429 5426 5423 5420 5417 5414 5412 5409 5406
5497 5496 5494 5491 5489 5487 5485 5483 5481 5479 5477 5475 5474 5472 5470 5468 5466 5464 5462 5459 5457 5455 5453 5451 5448 5446 5444 5441 5438 5436 5433 5430 5427 5424 5420 5418 5415 5412 5409 5406 5404 5401 5398 5396
5486 5485 5484 5481 5479 5477 5475 5473 5471 5469 5467 5465 5464 5462 5460 5458 5456 5453 5451 5449 5447 5445 5442 5440 5437 5435 5432 5430 5427 5425 5422 5419 5416 5413 5410 5407 5404 5401 5399 5396 5394 5391 5388 5386
5476 5476 5474 5472 5470 5468 5465 5463 5461 5459 5457 5455 5453 5451 5449 5448 5445 5443 5441 5438 5436 5434 5432 5429 5427 5424 5422 5419 5417 5414 5411 5408 5405 5402 5399 5397 5394 5391 5389 5386 5384 5381 5379 5376
5467 5466 5463 5462 5460 5457 5455 5453 5451 5449 5447 5445 5443 5441 5439 5437 5435 5433 5430 5428 5426 5423 5421 5419 5416 5414 5411 5408 5406 5403 5401 5398 5395 5392 5390 5387 5384 5382 5379 5377 5374 5371 5369 5366
5457 5455 5453 5451 5449 5447 5445 5443 5441 5439 5437 5435 5433 5431 5429 5427 5425 5422 5420 5418 5415 5413 5410 5408 5405 5403 5400 5398 5395 5393 5391 5388 5386 5383 5380 5378 5375 5373 5370 5368 5365 5362 5360 5357
5447 5445 5443 5441 5439 5437 5435 5433 5431 5429 5427 5425 5423 5421 5419 5417 5414 5412 5410 5407 5405 5402 5400 5397 5395 5392 5390 5387 5385 5383 5381 5379 5376 5374 5371 5368 5366 5364 5361 5359 5357 5353 5351 5348
5438 5436 5434 5431 5429 5427 5425 5423 5421 5419 5417 5415 5413 5411 5409 5407 5404 5402 5399 5397 5394 5392 5390 5387 5385 5382 5380 5377 5375 5373 5371 5369 5367 5364 5362 5359 5357 5355 5353 5350 5348 5345 5342 5340
5429 5427 5424 5422 5420 5418 5416 5414 5412 5410 5408 5406 5404 5401 5399 5396 5394 5391 5389 5386 5384 5382 5379 5377 5375 5372 5370 5368 5366 5364 5362 5360 5358 5355 5353 5350 5348 5346 5344 5341 5339 5336 5334 5331
5421 5419 5416 5414 5411 5409 5407 5405 5403 5400 5398 5396 5394 5392 5389 5387 5384 5382 5379 5376 5374 5372 5370 5367 5365 5363 5361 5359 5357 5355 5353 5350 5348 5346 5343 5341 5339 5337 5335 5333 5330 5328 5325 5323
5412 5410 5407 5405 5403 5401 5398 5396 5394 5391 5389 5387 5385 5383 5380 5378 5375 5372 5370 5367 5365 5363 5360 5358 5356 5354 5352 5349 5347 5345 5343 5341 5339 5336 5334 5332 5330 5328 5326 5324 5322 5319 5317 5315
5404 5401 5399 5397 5395 5392 5390 5388 5386 5383 5381 5378 5376 5374 5371 5369 5366 5363 5361 5359 5356 5354 5352 5349 5347 5345 5343 5341 5338 5336 5334 5332 5330 5327 5325 5323 5321 5319 5317 5315 5313 5311 5309 5307
5396 5393 5391 5389 5386 5384 5382 5380 5378 5375 5373 5370 5368 5366 5363 5360 5358 5355 5352 5350 5348 5346 5343 5341 5339 5336 5334 5332 5330 5328 5326 5323 5321 5319 5317 5315 5313 5311 5309 5307 5305 5303 5301 5299
5388 5386 5383 5381 5379 5376 5374 5372 5370 5367 5365 5362 5360 5358 5355 5352 5350 5347 5344 5342 5340 5337 5335 5333 5331 5328 5326 5324 5322 5319 5317 5315 5313 5311 5309 5307 5305 5303 5301 5299 5297 5295 5293 5291
5381 5378 5375 5373 5371 5369 5366 5364 5362 5360 5357 5354 5352 5350 5347 5345 5342 5339 5337 5334 5332 5330 5328 5325 5323 5321 5318 5316 5313 5311 5309 5307 5305 5303 5301 5299 5297 5295 5294 5292 5289 5287 5285 5283
5373 5370 5368 5365 5363 5361 5359 5356 5354 5352 5349 5347 5344 5342 5339 5337 5334 5332 5329 5327 5324 5322 5320 5317 5315 5312 5310 5308 5305 5303 5301 5299 5297 5295 5293 5291 5290 5288 5286 5284 5282 5280 5278 5276
5366 5363 5360 5358 5355 5353 5351 5349 5346 5344 5342 5339 5337 5334 5331 5329 5326 5323 5321 5318 5316 5314 5311 5309 5307 5304 5302 5300 5298 5296 5293 5291 5289 5287 5285 5284 5282 5280 5278 5276 5275 5273 5271 5269
5358 5356 5353 5350 5348 5345 5343 5341 5339 5336 5334 5331 5329 5326 5323 5320 5318 5315 5313 5310 5308 5306 5303 5301 5299 5296 5294 5292 5290 5288 5285 5283 5281 5279 5277 5276 5274 5273 5271 5269 5267 5265 5263 5262
5351 5348 5345 5343 5340 5338 5335 5333 5330 5328 5326 5324 5321 5318 5316 5313 5310 5308 5305 5303 5300 5298 5296 5293 5291 5289 5287 5284 5282 5280 5277 5275 5273 5271 5269 5268 5266 5265 5263 5262 5260 5258 5257 5255
5344 5341 5338 5336 5333 5330 5327 5325 5322 5320 5318 5316 5313 5311 5308 5305 5303 5300 5298 5296 5293 5290 5288 5286 5284 5281 5279 5277 5274 5272 5269 5267 5265 5263 5261 5260 5259 5257 5256 5254 5253 5252 5250 5248